Regional Weather Roundup
Issued by NWS Albany, NY

Home | Current Version | Previous Version | Text Only | Print | Product List | Glossary On
Versions: 1 2 3 4 5 6 7 8 9 10 11 12 13 14 15 16 17 18 19 20 21 22 23 24 25 26 27 28 29 30 31 32 33 34 35 36 37 38 39 40 41 42 43 44 45 46 47 48 49 50
000
ASUS41 KALY 030810
RWRALY

NEW YORK STATE HOURLY WEATHER ROUNDUP
NATIONAL WEATHER SERVICE ALBANY NY
400 AM EDT THU SEP 03 2015

NOTE: "FAIR" INDICATES FEW OR NO CLOUDS BELOW 12,000 FEET WITH NO
SIGNIFICANT WEATHER AND/OR NO OBSTRUCTIONS TO VISIBILITY.

NYZ032-033-038>043-046>054-057>066-NYZ062>081-030900-
EAST


CITY           SKY/WX    TMP DP  RH WIND       PRES   REMARKS
ALBANY         PTCLDY    67  64  90 CALM      29.88S
GLENS FALLS    CLEAR     63  60  90 CALM      29.88S FOG
POUGHKEEPSIE   CLEAR     65  62  90 CALM      29.87S
NEWBURGH       CLEAR     66  64  94 CALM      29.90F
MONTGOMERY     CLEAR     62  62 100 CALM      29.88S FOG
WHITE PLAINS   CLEAR     69  65  86 NW3       29.86F
ISLIP          CLEAR     70  67  90 CALM      29.84F
NEW YORK CITY  CLEAR     78  68  71 NW3       29.85S
CENTRAL PARK   CLEAR     77  66  68 CALM      29.89S
$$

NYZ005>009-017-018-044>046-055-056-030900-
CENTRAL


CITY           SKY/WX    TMP DP  RH WIND       PRES   REMARKS
FULTON         PTCLDY    65  63  93 CALM      29.90S FOG
SYRACUSE       PTCLDY    67  66  97 CALM      29.90R FOG
ROME           MOCLDY    62  61  96 CALM      29.92S
ELMIRA         PTCLDY    66  66 100 SW6       29.94S FOG
BINGHAMTON     CLEAR     67  66  97 W5        29.96S FOG
MONTICELLO     CLEAR     63  61  94 W3        29.95F
$$

NYZ026>034-041>043-030900-
NORTH


CITY           SKY/WX    TMP DP  RH WIND       PRES   REMARKS
WATERTOWN      CLOUDY    68  66  93 CALM      29.89R FOG
FORT DRUM      NOT AVBL
MASSENA        CLOUDY    70  67  90 SW3       29.88R FOG
SARANAC LAKE   PTCLDY    60  58  92 CALM      29.92F FOG
PLATTSBURGH    PTCLDY    66  65  96 SW3       29.85F FOG
$$

NYZ001>004-010>016-019>021-030900-
WEST


CITY           SKY/WX    TMP DP  RH WIND       PRES   REMARKS
NIAGARA FALLS  PTCLDY    70  69  97 SW3       29.92R FOG
BUFFALO        PTCLDY    70  67  90 S5        29.92S
DUNKIRK        PTCLDY    71  67  87 S7        29.93S
JAMESTOWN        N/A     64  63  94 S5        29.99S VSB<1/4
WELLSVILLE     FOG       65  63  93 CALM      30.02F VSB 3/4
ROCHESTER      CLOUDY    69  66  90 SW6       29.91S
PENN YAN       PTCLDY    70  67  90 SW6       29.94S FOG
$$

             KEY
       WCI = WIND CHILL INDEX
       VSB = VISIBILITY
       HX  = HEAT INDEX
$$


USA.gov is the U.S. government's official web portal to all federal, state and local government web resources and services.